Time,TemperatureF,DewpointF,PressureIn,WindDirection,WindDirectionDegrees,WindSpeedMPH,WindSpeedGustMPH,Humidity,HourlyPrecipIn,Conditions,Clouds,dailyrainin,SolarRadiationWatts/m^2,SoftwareType,DateUTC
2013-04-30 00:21:00,57.0,43.0,-100.00,SE,124,0.0,6.0,60,0.00,,,0.00,0.000000,,2013-04-30 07:21:00,
2013-04-30 00:31:00,57.0,43.0,-100.00,SE,124,0.0,6.0,60,0.00,,,0.00,0.000000,,2013-04-30 07:31:00,
2013-04-30 00:41:00,57.0,43.0,-100.00,SE,124,0.0,6.0,60,0.00,,,0.00,0.000000,,2013-04-30 07:41:00,
2013-04-30 00:52:00,57.0,43.0,-100.00,SE,124,0.0,6.0,60,0.00,,,0.00,0.000000,,2013-04-30 07:52:00,
2013-04-30 01:21:00,58.0,42.0,-100.00,SE,146,3.0,6.0,55,0.00,,,0.00,0.000000,,2013-04-30 08:21:00,
2013-04-30 01:32:00,58.0,42.0,-100.00,SE,146,3.0,6.0,55,0.00,,,0.00,0.000000,,2013-04-30 08:32:00,
2013-04-30 01:42:00,58.0,42.0,-100.00,SE,146,3.0,6.0,55,0.00,,,0.00,0.000000,,2013-04-30 08:42:00,
2013-04-30 01:52:00,58.0,42.0,-100.00,SE,146,3.0,6.0,55,0.00,,,0.00,0.000000,,2013-04-30 08:52:00,
2013-04-30 02:22:00,56.0,43.0,-100.00,ESE,117,0.0,8.0,62,0.00,,,0.00,0.000000,,2013-04-30 09:22:00,
2013-04-30 02:33:00,56.0,43.0,-100.00,ESE,117,0.0,8.0,62,0.00,,,0.00,0.000000,,2013-04-30 09:33:00,
2013-04-30 02:43:00,56.0,43.0,-100.00,ESE,117,0.0,8.0,62,0.00,,,0.00,0.000000,,2013-04-30 09:43:00,
2013-04-30 02:52:00,56.0,43.0,-100.00,ESE,117,0.0,8.0,62,0.00,,,0.00,0.000000,,2013-04-30 09:52:00,
2013-04-30 03:22:00,55.0,42.0,-100.00,ESE,108,0.0,3.0,61,0.00,,,0.00,0.000000,,2013-04-30 10:22:00,
2013-04-30 03:32:00,55.0,42.0,-100.00,ESE,108,0.0,3.0,61,0.00,,,0.00,0.000000,,2013-04-30 10:32:00,
2013-04-30 03:41:00,55.0,42.0,-100.00,ESE,108,0.0,3.0,61,0.00,,,0.00,0.000000,,2013-04-30 10:41:00,
2013-04-30 03:52:00,55.0,42.0,-100.00,ESE,108,0.0,3.0,61,0.00,,,0.00,0.000000,,2013-04-30 10:52:00,
2013-04-30 04:21:00,55.0,41.0,-100.00,SE,124,0.0,6.0,59,0.00,,,0.00,0.000000,,2013-04-30 11:21:00,
2013-04-30 04:31:00,55.0,41.0,-100.00,SE,124,0.0,6.0,59,0.00,,,0.00,0.000000,,2013-04-30 11:31:00,
2013-04-30 04:42:00,55.0,41.0,-100.00,SE,124,0.0,6.0,59,0.00,,,0.00,0.000000,,2013-04-30 11:42:00,
2013-04-30 04:51:00,55.0,41.0,-100.00,SE,124,0.0,6.0,59,0.00,,,0.00,0.000000,,2013-04-30 11:51:00,
2013-04-30 05:21:00,54.0,40.0,-100.00,SE,136,1.0,5.0,59,0.00,,,0.00,0.000000,,2013-04-30 12:21:00,
2013-04-30 05:31:00,54.0,40.0,-100.00,SE,136,1.0,5.0,59,0.00,,,0.00,0.000000,,2013-04-30 12:31:00,
2013-04-30 05:41:00,54.0,40.0,-100.00,SE,136,1.0,5.0,59,0.00,,,0.00,0.000000,,2013-04-30 12:41:00,
2013-04-30 05:51:00,54.0,40.0,-100.00,SE,136,1.0,5.0,59,0.00,,,0.00,0.000000,,2013-04-30 12:51:00,
2013-04-30 08:21:00,61.0,42.0,-100.00,SE,133,0.0,6.0,49,-99.99,,,0.00,59.000000,,2013-04-30 15:21:00,
2013-04-30 08:32:00,61.0,42.0,-100.00,SE,133,0.0,6.0,49,-99.99,,,0.00,59.000000,,2013-04-30 15:32:00,
2013-04-30 08:42:00,61.0,42.0,-100.00,SE,133,0.0,6.0,49,-99.99,,,0.00,59.000000,,2013-04-30 15:42:00,
2013-04-30 08:52:00,61.0,42.0,-100.00,SE,133,0.0,6.0,49,-99.99,,,0.00,59.000000,,2013-04-30 15:52:00,
2013-04-30 09:22:00,73.0,45.0,-100.00,West,278,0.0,4.0,37,0.00,,,0.00,511.000000,,2013-04-30 16:22:00,
2013-04-30 09:33:00,73.0,45.0,-100.00,West,278,0.0,4.0,37,0.00,,,0.00,511.000000,,2013-04-30 16:33:00,
2013-04-30 09:42:00,73.0,45.0,-100.00,West,278,0.0,4.0,37,0.00,,,0.00,511.000000,,2013-04-30 16:42:00,
2013-04-30 09:52:00,73.0,45.0,-100.00,West,278,0.0,4.0,37,0.00,,,0.00,511.000000,,2013-04-30 16:52:00,
2013-04-30 10:22:00,74.0,42.0,-100.00,WSW,248,4.0,4.0,32,0.00,,,0.00,767.000000,,2013-04-30 17:22:00,
2013-04-30 10:32:00,74.0,42.0,-100.00,WSW,248,4.0,4.0,32,0.00,,,0.00,767.000000,,2013-04-30 17:32:00,
2013-04-30 10:42:00,74.0,42.0,-100.00,WSW,248,4.0,4.0,32,0.00,,,0.00,767.000000,,2013-04-30 17:42:00,
2013-04-30 10:52:00,74.0,42.0,-100.00,WSW,248,4.0,4.0,32,0.00,,,0.00,767.000000,,2013-04-30 17:52:00,
2013-04-30 11:22:00,76.0,45.0,-100.00,WSW,252,5.0,10.0,33,0.00,,,0.00,958.000000,,2013-04-30 18:22:00,
2013-04-30 11:32:00,76.0,45.0,-100.00,WSW,252,5.0,10.0,33,0.00,,,0.00,958.000000,,2013-04-30 18:32:00,
2013-04-30 11:41:00,76.0,45.0,-100.00,WSW,252,5.0,10.0,33,0.00,,,0.00,958.000000,,2013-04-30 18:41:00,
2013-04-30 11:51:00,76.0,45.0,-100.00,WSW,252,5.0,10.0,33,0.00,,,0.00,958.000000,,2013-04-30 18:51:00,
2013-04-30 12:21:00,74.0,43.0,-100.00,West,269,5.0,11.0,33,0.00,,,0.00,1077.000000,,2013-04-30 19:21:00,
2013-04-30 12:32:00,74.0,43.0,-100.00,West,269,5.0,11.0,33,0.00,,,0.00,1077.000000,,2013-04-30 19:32:00,
2013-04-30 12:41:00,74.0,43.0,-100.00,West,269,5.0,11.0,33,0.00,,,0.00,1077.000000,,2013-04-30 19:41:00,
2013-04-30 12:52:00,74.0,43.0,-100.00,West,269,5.0,11.0,33,0.00,,,0.00,1077.000000,,2013-04-30 19:52:00,
2013-04-30 13:21:00,78.0,47.0,-100.00,SSE,165,4.0,11.0,33,0.00,,,0.00,1149.000000,,2013-04-30 20:21:00,
2013-04-30 13:32:00,78.0,47.0,-100.00,SSE,165,4.0,11.0,33,0.00,,,0.00,1149.000000,,2013-04-30 20:32:00,
2013-04-30 13:42:00,78.0,47.0,-100.00,SSE,165,4.0,11.0,33,0.00,,,0.00,1149.000000,,2013-04-30 20:42:00,
2013-04-30 13:52:00,78.0,47.0,-100.00,SSE,165,4.0,11.0,33,0.00,,,0.00,1149.000000,,2013-04-30 20:52:00,
2013-04-30 14:22:00,78.0,47.0,-100.00,SSE,156,4.0,12.0,33,0.00,,,0.00,1137.000000,,2013-04-30 21:22:00,
2013-04-30 14:32:00,78.0,47.0,-100.00,SSE,156,4.0,12.0,33,0.00,,,0.00,1137.000000,,2013-04-30 21:32:00,
2013-04-30 14:42:00,78.0,47.0,-100.00,SSE,156,4.0,12.0,33,0.00,,,0.00,1137.000000,,2013-04-30 21:42:00,
2013-04-30 14:52:00,78.0,47.0,-100.00,SSE,156,4.0,12.0,33,0.00,,,0.00,1137.000000,,2013-04-30 21:52:00,
2013-04-30 15:22:00,77.0,46.0,-100.00,West,279,6.0,13.0,33,0.00,,,0.00,987.000000,,2013-04-30 22:22:00,
2013-04-30 15:32:00,77.0,46.0,-100.00,West,279,6.0,13.0,33,0.00,,,0.00,987.000000,,2013-04-30 22:32:00,
2013-04-30 15:41:00,77.0,46.0,-100.00,West,279,6.0,13.0,33,0.00,,,0.00,987.000000,,2013-04-30 22:41:00,
2013-04-30 15:52:00,77.0,46.0,-100.00,West,279,6.0,13.0,33,0.00,,,0.00,987.000000,,2013-04-30 22:52:00,
2013-04-30 16:21:00,78.0,47.0,-100.00,NNE,32,4.0,12.0,34,0.00,,,0.00,884.000000,,2013-04-30 23:21:00,
2013-04-30 16:32:00,78.0,47.0,-100.00,NNE,32,4.0,12.0,34,0.00,,,0.00,884.000000,,2013-04-30 23:32:00,
2013-04-30 16:42:00,78.0,47.0,-100.00,NNE,32,4.0,12.0,34,0.00,,,0.00,884.000000,,2013-04-30 23:42:00,
2013-04-30 16:52:00,78.0,47.0,-100.00,NNE,32,4.0,12.0,34,0.00,,,0.00,884.000000,,2013-04-30 23:52:00,
2013-04-30 17:21:00,75.0,44.0,-100.00,East,86,4.0,11.0,33,0.00,,,0.00,733.000000,,2013-05-01 00:21:00,
2013-04-30 17:32:00,75.0,44.0,-100.00,East,86,4.0,11.0,33,0.00,,,0.00,733.000000,,2013-05-01 00:32:00,
2013-04-30 17:42:00,75.0,44.0,-100.00,East,86,4.0,11.0,33,0.00,,,0.00,733.000000,,2013-05-01 00:42:00,
2013-04-30 17:51:00,75.0,44.0,-100.00,East,86,4.0,11.0,33,0.00,,,0.00,733.000000,,2013-05-01 00:51:00,
2013-04-30 18:21:00,75.0,45.0,-100.00,NNE,12,4.0,14.0,34,0.00,,,-99.99,472.000000,,2013-05-01 01:21:00,
2013-04-30 18:31:00,75.0,45.0,-100.00,NNE,12,4.0,14.0,34,0.00,,,-99.99,472.000000,,2013-05-01 01:31:00,
2013-04-30 18:41:00,75.0,45.0,-100.00,NNE,12,4.0,14.0,34,0.00,,,-99.99,472.000000,,2013-05-01 01:41:00,
2013-04-30 18:52:00,75.0,45.0,-100.00,NNE,12,4.0,14.0,34,0.00,,,-99.99,472.000000,,2013-05-01 01:52:00,
2013-04-30 19:21:00,68.0,43.0,-100.00,NW,309,1.0,11.0,41,0.00,,,0.00,62.000000,,2013-05-01 02:21:00,
2013-04-30 19:32:00,68.0,43.0,-100.00,NW,309,1.0,11.0,41,0.00,,,0.00,62.000000,,2013-05-01 02:32:00,
2013-04-30 19:42:00,68.0,43.0,-100.00,NW,309,1.0,11.0,41,0.00,,,0.00,62.000000,,2013-05-01 02:42:00,
2013-04-30 19:51:00,68.0,43.0,-100.00,NW,309,1.0,11.0,41,0.00,,,0.00,62.000000,,2013-05-01 02:51:00,
2013-04-30 20:21:00,60.0,41.0,-100.00,NE,51,0.0,8.0,49,0.00,,,0.00,16.000000,,2013-05-01 03:21:00,
2013-04-30 20:33:00,60.0,41.0,-100.00,NE,51,0.0,8.0,49,0.00,,,0.00,16.000000,,2013-05-01 03:33:00,
2013-04-30 20:42:00,60.0,41.0,-100.00,NE,51,0.0,8.0,49,0.00,,,0.00,16.000000,,2013-05-01 03:42:00,
2013-04-30 20:52:00,60.0,41.0,-100.00,NE,51,0.0,8.0,49,0.00,,,0.00,16.000000,,2013-05-01 03:52:00,
2013-04-30 21:22:00,57.0,42.0,-100.00,ESE,115,0.0,4.0,58,0.00,,,-99.99,0.000000,,2013-05-01 04:22:00,
2013-04-30 21:32:00,57.0,42.0,-100.00,ESE,115,0.0,4.0,58,0.00,,,-99.99,0.000000,,2013-05-01 04:32:00,
2013-04-30 21:42:00,57.0,42.0,-100.00,ESE,115,0.0,4.0,58,0.00,,,-99.99,0.000000,,2013-05-01 04:42:00,
2013-04-30 21:52:00,57.0,42.0,-100.00,ESE,115,0.0,4.0,58,0.00,,,-99.99,0.000000,,2013-05-01 04:52:00,
2013-04-30 22:21:00,55.0,40.0,-100.00,SE,132,1.0,4.0,57,0.00,,,-99.99,0.000000,,2013-05-01 05:21:00,
2013-04-30 22:32:00,55.0,40.0,-100.00,SE,132,1.0,4.0,57,0.00,,,-99.99,0.000000,,2013-05-01 05:32:00,
2013-04-30 22:41:00,55.0,40.0,-100.00,SE,132,1.0,4.0,57,0.00,,,-99.99,0.000000,,2013-05-01 05:41:00,
2013-04-30 22:52:00,55.0,40.0,-100.00,SE,132,1.0,4.0,57,0.00,,,-99.99,0.000000,,2013-05-01 05:52:00,
2013-04-30 23:22:00,56.0,39.0,-100.00,ESE,116,0.0,6.0,53,0.00,,,0.00,0.000000,,2013-05-01 06:22:00,
2013-04-30 23:32:00,56.0,39.0,-100.00,ESE,116,0.0,6.0,53,0.00,,,0.00,0.000000,,2013-05-01 06:32:00,
2013-04-30 23:42:00,56.0,39.0,-100.00,ESE,116,0.0,6.0,53,0.00,,,0.00,0.000000,,2013-05-01 06:42:00,
2013-04-30 23:51:00,56.0,39.0,-100.00,ESE,116,0.0,6.0,53,0.00,,,0.00,0.000000,,2013-05-01 06:51:00,